EW7837 Weather Reports


time (UTC)temp
C
wind
direction
speed
KPH
gust
KPH
rain 1hr
cm
rain 24hr
cm
rain mn
cm
humidity
%
barometer
mb
20260506073010 15 260 0.0 0.0 0.00 0.00 0.00 82 1014.9
20260506071512 15 260 0.0 0.0 0.00 0.00 0.00 83 1014.8
20260506061600 15 260 0.0 0.0 0.00 0.00 0.00 79 1014.5
20260506060120 16 260 0.0 0.0 0.00 0.00 0.00 78 1014.6
20260506044544 17 260 0.0 0.0 0.00 0.00 0.00 75 1014.3
20260506043041 16 260 0.0 0.0 0.00 0.00 0.00 74 1014.1
20260506041541 16 260 0.0 0.0 0.00 0.00 0.00 76 1013.8
20260506040041 16 260 0.0 0.0 0.00 0.00 0.00 76 1013.7
20260506034539 17 260 0.0 0.0 0.00 0.00 0.00 75 1013.3
20260506033008 17 260 0.0 0.0 0.00 0.00 0.00 74 1013.2
20260506031506 17 260 0.0 0.0 0.00 0.00 0.00 73 1012.9
20260506030002 17 260 0.0 0.0 0.00 0.00 0.00 73 1012.7
20260506024503 17 260 0.0 0.0 0.00 0.00 0.00 72 1012.6
20260506023102 17 260 0.0 0.0 0.00 0.00 0.38 71 1012.4
20260506021559 17 260 0.0 0.0 0.00 0.00 0.38 70 1012.2
20260506020056 17 260 0.0 0.0 0.00 0.00 0.38 69 1012.2
20260506014556 18 260 0.0 0.0 0.00 0.00 0.38 67 1012.2
20260506013055 17 260 0.0 0.0 0.00 0.00 0.38 68 1012.1
20260506011556 18 263 0.0 0.0 0.00 0.00 0.38 67 1012.1
20260506010054 18 261 0.0 0.0 0.00 0.00 0.38 65 1012.0
20260506004554 19 263 0.0 0.0 0.00 0.00 0.38 64 1011.7
20260506003051 20 259 0.0 0.0 0.00 0.00 0.38 63 1011.7
20260506001551 20 232 0.0 0.0 0.00 0.00 0.38 61 1011.7
20260506000048 20 266 0.0 0.0 0.00 0.00 0.38 61 1011.7
20260505234550 20 259 0.0 0.0 0.00 0.00 0.38 61 1011.8
20260505233047 20 265 0.0 0.0 0.00 0.00 0.38 60 1011.9
20260505231559 20 250 0.0 0.0 0.00 0.00 0.38 60 1012.1
20260505230037 20 265 0.0 0.0 0.00 0.00 0.38 61 1012.1
20260505224517 20 263 1.6 0.0 0.00 0.00 0.38 60 1012.2
20260505223016 20 271 3.2 0.0 0.00 0.00 0.38 60 1012.3
20260505221516 20 277 1.6 0.0 0.00 0.00 0.38 60 1012.2
20260505220012 20 279 1.6 0.0 0.00 0.00 0.38 59 1012.3
20260505214512 20 279 1.6 0.0 0.00 0.00 0.38 56 1012.5
20260505213012 20 263 1.6 0.0 0.00 0.00 0.38 59 1012.6
20260505211513 20 272 1.6 0.0 0.00 0.00 0.38 63 1012.6
20260505210012 20 257 1.6 0.0 0.00 0.00 0.38 63 1012.7
20260505204506 20 277 1.6 0.0 0.00 0.00 0.38 64 1012.7
20260505203006 20 268 1.6 0.0 0.00 0.00 0.38 63 1012.7
20260505201507 20 277 1.6 0.0 0.00 0.00 0.38 62 1012.7
20260505200002 20 242 0.0 0.0 0.00 0.00 0.38 63 1013.0
20260505194501 20 275 0.0 0.0 0.00 0.00 0.38 63 1013.1
20260505193059 20 261 0.0 0.0 0.00 0.00 0.38 66 1013.0
20260505191611 19 261 1.6 0.0 0.00 0.00 0.38 65 1013.2
20260505190053 19 271 0.0 0.0 0.00 0.00 0.38 67 1013.1
20260505184551 19 270 0.0 0.0 0.00 0.00 0.38 68 1013.0
20260505183049 18 271 0.0 0.0 0.00 0.00 0.38 72 1012.9
20260505181520 18 267 0.0 0.0 0.00 0.00 0.38 73 1012.8
20260505180037 18 275 1.6 0.0 0.00 0.00 0.38 74 1012.7
20260505174510 17 257 0.0 0.0 0.00 0.00 0.38 78 1012.7
20260505173009 17 256 0.0 0.0 0.00 0.00 0.38 81 1012.4
20260505171509 17 264 0.0 0.0 0.00 0.00 0.38 81 1012.5
20260505170009 17 264 0.0 0.0 0.00 0.00 0.38 81 1012.3
20260505164541 17 264 0.0 0.0 0.00 0.00 0.38 84 1012.2
20260505163036 16 264 0.0 0.0 0.00 0.00 0.38 85 1012.2
20260505161534 16 264 0.0 0.0 0.00 0.00 0.38 89 1012.2
20260505153030 15 264 0.0 0.0 0.00 0.00 0.38 91 1012.1
20260505151527 15 264 0.0 0.0 0.00 0.00 0.38 92 1011.8
20260505124559 14 264 0.0 0.0 0.00 0.00 0.30 92 1010.6
20260505123101 14 264 0.0 0.0 0.00 0.00 0.28 92 1010.6
20260505121555 14 264 0.0 0.0 0.00 0.00 0.28 92 1010.6
20260505120056 15 264 0.0 0.0 0.00 0.00 0.28 92 1010.6
20260505114541 15 264 0.0 0.0 0.00 0.00 0.28 92 1010.4
20260505113031 15 264 0.0 0.0 0.00 0.00 0.28 92 1010.5
20260505111529 15 264 0.0 0.0 0.00 0.00 0.25 92 1010.6
20260505101609 15 264 0.0 0.0 0.00 0.00 0.25 91 1010.6
20260505100105 15 264 0.0 0.0 0.00 0.00 0.25 91 1010.6
20260505094551 15 264 0.0 0.0 0.00 0.00 0.25 91 1010.8
20260505093101 15 264 0.0 0.0 0.00 0.00 0.25 91 1011.1
20260505091551 14 264 0.0 0.0 0.00 0.00 0.25 90 1011.1
20260505090049 14 264 0.0 0.0 0.00 0.00 0.25 90 1011.1
20260505084517 15 264 0.0 0.0 0.00 0.00 0.25 90 1011.2
20260505083021 15 264 0.0 0.0 0.00 0.00 0.25 90 1011.4
20260505081629 15 264 0.0 0.0 0.00 0.00 0.25 89 1011.7
20260505080056 15 264 0.0 0.0 0.00 0.00 0.25 89 1011.7
20260505074546 15 264 0.0 0.0 0.00 0.00 0.25 89 1011.7